CZ-6A DEB, 55190

Orbit data source: Space-Track

CZ-6A DEB, 55190 is space debris in SSO originally from a launch on Fri, 11 Nov 2022 UTC launched from the Taiyaun Space Center, China (TSC). Debris objects in space refer to the collection of defunct objects orbiting the Earth. Examples of debris include non-operational satellites, rocket bodies, and fragments generated from explosions, collisions, or faulty payload assembly.

Loading next visibility...
Identifier
55190, 2022-151VF
Orbit
SSO
Country
Flag of CNCN / PRC
Related business
Manufacturer
SAST
Mission
Spacecraft
Bus & Motor
Unknown
Mass
Unknown
Launch date (UTC)
2022-11-11 (4 years ago)
Launch vehicle
Unknown
Launch site
Taiyaun Space Center, China (TSC)
Object type
Payload
Rocket body
Debris
Shape & HBR
Unknown shape, 0.1 m
Radar Cross Section
Small (<0.1 m²)

Expand to show TLE details & history
Last TLE update: 4 days ago

TLE from 4 days ago
0 CZ-6A DEB
1 55190U 22151VF  26169.62221579  .00010883  00000-0  13952-2 0  9991
2 55190  98.6363 245.0362 0061561 251.9084 107.5414 14.80127611185835
Epoch: 2026-06-18T14:55Z
TLE epoch observation values (Epoch: 2026-06-18T14:55:59.444Z)
Latitude
0.00001°
Longitude
114.17561°
Altitude
645.164 km
Speed
7.528 km/s
True Right ascension
16h 20m 08s
True Declination
0° 00' 00"
Sunlit
Object was in full shadow at epoch
Visualization orbit readout
Latitude
Unknown
Longitude
Unknown
Altitude
Unknown
Speed
Unknown
Apparent Right ascension
Unknown
Apparent Declination
Unknown
Sunlit
N/A
Visualization observer readout
Local Sidereal Time
21:31:15
Azimuth
Unknown
Elevation
Unknown
Doppler factor
Unknown
Orbital elements
Apogee altitude
669.114 km
Perigee altitude
582.878 km
Semi-major axis
7,004.133 km
Eccentricity
0.00616
Inclination
98.6363°
RAAN
245.0362°
Arg. of periapsis
251.9084°
True anomaly
108.21246°
Mean anomaly
107.5414°
Eccentric anomaly
107.87709°
Mean motion
3.70264 °/min
Orbital period
97.23 mins
BSTAR
0.0013952
Loading maneuver chart data...
Computing Atmospheric mass density...
Loading historical data...
Loading historical data...
Loading historical data...
Loading historical data...
Loading historical data...
Loading historical data...
Loading historical data...

Documentation

Showing up to 5 results
|